Location: Hains Lake
(37.8540°N, 99.8578°W)
Time: 22:26:56
(UTC+00:00)

deb Explorer IX - Pass Details

Date: 21 April 2021
Orbit: 541 x 1098 km, 38.8° (Epoch: 13 May)

Event Time Altitude Azimuth Distance (km) Brightness Sun altitude
Rises 17:32:36 0° 282° (WNW) 2,995 ? 60.4°
Reaches altitude 10° 17:34:52 10° 277° (W) 2,157 ? 60.6°
Maximum altitude 17:39:45 50° 203° (SSW) 980 ? 61.2°
Drops below altitude 10° 17:45:30 10° 129° (SE) 2,524 ? 61.7°
Sets 17:48:20 0° 124° (SE) 3,556 ? 62.0°
